Dewpoint
67 67 69 66 69 70 66 64 67 66 66 66 65 65 66 67 68 67 67 68 68 67 67 67 67 69 70 69 69 67 68 67 67 67 67 67 65 65 66 65 65 64
68 68 70 68 69 69 67 66 67 66 64 63 63 66 68 67 67 66 67 67 67 67 67 67 67 67 67 67 67 65 65 66 65 68 66 65 65 65 65 65 65 65
66 67 66 66 64 64 64 67 67 65 64 66 66 65 67 68 67 67 66 66 66 67 67 67 67 66 67 67 67 66 65 65 66 67 67 66 66 66 66 66 65 65
66 66 65 65 65 66 66 66 66 66 64 63 65 67 66 65 65 66 66 69 66 66 67 67 66 66 66 66 66 67 67 67 67 66 66 66 67 66 65 65 66 64
66 66 65 66 66 67 68 64 63 63 64 65 66 65 67 67 66 65 65 65 66 66 65 66 67 66 66 66 66 65 66 66 66 66 65 65 66 66 66 65 64 63
67 66 67 65 66 65 64 63 64 63 64 64 62 65 65 65 63 63 64 65 64 63 64 64 65 65 65 65 65 65 66 66 66 66 66 65 65 66 66 65 64 63
67 66 66 66 66 66 65 65 64 65 63 62 65 64 65 64 63 64 65 65 64 65 64 64 65 65 66 66 65 65 66 66 66 65 65 64 65 65 65 64 64 63
66 65 66 65 65 65 65 66 65 65 64 64 63 63 65 64 64 64 65 64 64 64 65 65 65 65 66 65 65 65 65 66 65 65 64 64 63 64 64 64 62 62
67 66 66 66 65 65 65 66 65 63 64 64 64 64 65 64 64 64 64 64 64 64 64 65 65 65 66 65 65 65 64 64 65 65 64 62 62 62 62 63 62 63
67 67 66 65 65 65 64 63 62 62 64 63 63 63 63 65 65 65 64 64 64 64 65 65 65 66 66 66 66 65 64 64 64 63 63 63 62 62 63 63 62 61
66 66 65 64 63 62 62 61 61 59 63 60 60 61 61 61 62 64 64 64 64 64 64 64 65 65 66 66 66 65 65 64 62 61 62 62 63 62 64 63 62 61
65 64 63 63 62 61 60 60 60 59 59 60 62 59 61 61 60 61 62 62 63 64 64 64 64 66 65 65 66 66 63 62 62 62 63 63 62 62 62 62 62 61
65 64 63 62 63 62 62 61 60 59 60 62 62 61 60 59 59 59 62 63 63 62 62 63 63 64 64 66 66 64 63 63 63 62 62 63 63 63 62 62 61 60
64 63 63 63 63 64 63 62 62 63 62 63 63 61 61 60 59 58 59 61 61 61 61 62 61 61 63 65 66 64 63 62 63 63 63 63 63 62 61 61 60 60
64 63 63 63 64 63 63 62 63 63 64 64 63 63 64 61 60 60 60 60 61 61 61 62 63 63 66 66 65 63 63 63 64 63 63 62 61 61 61 61 60 60
64 64 64 63 63 62 62 62 62 63 63 63 63 63 63 63 61 62 62 60 60 62 62 63 62 64 67 65 64 64 65 65 65 64 62 61 61 61 61 61 60 61
63 63 63 63 63 62 63 63 63 63 63 63 64 63 62 62 63 60 58 60 61 60 59 61 62 63 64 62 62 63 64 64 63 63 62 61 61 60 60 60 60 61
62 62 63 63 63 63 63 63 64 63 63 63 63 63 63 63 62 62 62 61 61 60 60 60 61 64 60 60 61 61 62 63 63 63 62 61 61 60 60 60 60 61
63 63 63 63 63 63 63 64 63 63 63 63 63 63 63 63 62 62 62 62 61 61 61 61 60 61 58 58 59 60 60 62 62 62 62 62 61 61 61 60 60 61
64 64 63 63 63 63 64 63 64 63 63 63 63 63 62 62 62 61 61 62 62 61 61 61 60 59 57 57 57 58 59 61 62 62 62 62 62 61 61 61 60 61
64 64 64 64 64 64 63 63 63 63 63 63 63 62 61 61 61 61 62 63 62 60 59 59 62 57 56 56 56 56 57 60 61 63 62 62 62 62 61 62 61 62
64 64 63 64 63 63 63 63 63 63 63 63 63 62 61 61 61 62 61 60 60 60 60 61 62 57 56 56 55 55 58 60 61 61 61 62 62 62 62 62 62 61
64 63 63 63 63 63 63 63 63 63 64 64 63 62 61 60 60 60 60 60 59 60 61 60 61 59 54 54 53 55 57 60 61 61 62 62 62 62 62 63 63 62
64 63 63 63 63 62 62 62 63 64 64 65 63 62 61 60 60 60 60 61 60 60 61 59 59 58 53 52 53 55 59 61 61 61 60 61 61 61 62 62 62 64
64 63 63 63 62 62 62 62 63 63 64 65 63 62 61 60 60 58 59 60 60 58 64 59 57 57 50 51 53 54 57 60 61 61 60 60 60 60 60 60 59 59
64 64 63 62 62 62 62 62 63 63 64 64 63 62 61 60 60 59 58 58 57 57 62 60 60 61 57 52 52 53 56 60 60 59 59 58 58 59 59 57 56 56